Time,TemperatureF,DewpointF,PressureIn,WindDirection,WindDirectionDegrees,WindSpeedMPH,WindSpeedGustMPH,Humidity,HourlyPrecipIn,Conditions,Clouds,dailyrainin,SoftwareType,DateUTC
2013-06-28 00:03:00,58.6,55.7,29.93,East,97,0.0,0.0,90,0.00,,,0.00,Wunderground v.1.15,2013-06-28 07:03:00,
2013-06-28 00:09:00,58.4,55.5,29.93,East,96,0.0,0.0,90,0.00,,,0.00,Wunderground v.1.15,2013-06-28 07:09:00,
2013-06-28 00:14:00,58.4,55.5,29.93,East,96,0.0,0.0,90,0.00,,,0.00,Wunderground v.1.15,2013-06-28 07:14:00,
2013-06-28 00:19:00,58.3,55.7,29.92,East,96,0.0,0.0,91,0.00,,,0.00,Wunderground v.1.15,2013-06-28 07:19:00,
2013-06-28 00:25:00,58.3,55.7,29.92,East,96,0.0,0.0,91,0.00,,,0.00,Wunderground v.1.15,2013-06-28 07:25:00,
2013-06-28 00:31:00,58.1,55.5,29.91,East,96,0.0,0.0,91,0.00,,,0.00,Wunderground v.1.15,2013-06-28 07:31:00,
2013-06-28 00:36:00,58.0,55.4,29.91,East,96,0.0,0.0,91,0.00,,,0.00,Wunderground v.1.15,2013-06-28 07:36:00,
2013-06-28 00:42:00,58.0,55.4,29.91,East,96,0.0,0.0,91,0.00,,,0.00,Wunderground v.1.15,2013-06-28 07:42:00,
2013-06-28 00:47:00,58.0,55.7,29.91,East,96,0.0,0.0,92,0.00,,,0.00,Wunderground v.1.15,2013-06-28 07:47:00,
2013-06-28 00:52:00,57.8,55.5,29.91,East,96,0.0,0.0,92,0.00,,,0.00,Wunderground v.1.15,2013-06-28 07:52:00,
2013-06-28 00:57:00,57.8,55.5,29.91,East,96,0.0,0.0,92,0.00,,,0.00,Wunderground v.1.15,2013-06-28 07:57:00,
2013-06-28 01:03:00,57.8,55.5,29.91,East,96,0.0,0.0,92,0.00,,,0.00,Wunderground v.1.15,2013-06-28 08:03:00,
2013-06-28 01:08:00,57.8,55.5,29.91,East,96,0.0,0.0,92,0.00,,,0.00,Wunderground v.1.15,2013-06-28 08:08:00,
2013-06-28 01:14:00,57.6,55.3,29.91,East,97,0.0,0.0,92,0.00,,,0.00,Wunderground v.1.15,2013-06-28 08:14:00,
2013-06-28 01:19:00,57.6,55.3,29.91,East,96,0.0,0.0,92,0.00,,,0.00,Wunderground v.1.15,2013-06-28 08:19:00,
2013-06-28 01:24:00,57.8,55.8,29.91,East,96,0.0,0.0,93,0.00,,,0.00,Wunderground v.1.15,2013-06-28 08:24:00,
2013-06-28 01:30:00,58.1,55.8,29.91,East,96,0.0,0.0,92,0.00,,,0.00,Wunderground v.1.15,2013-06-28 08:30:00,
2013-06-28 01:35:00,58.1,55.8,29.91,East,96,0.0,0.0,92,0.00,,,0.00,Wunderground v.1.15,2013-06-28 08:35:00,
2013-06-28 01:40:00,58.1,55.8,29.91,East,96,0.0,0.0,92,0.00,,,0.00,Wunderground v.1.15,2013-06-28 08:40:00,
2013-06-28 01:45:00,58.1,55.5,29.91,East,96,0.0,0.0,91,0.00,,,0.00,Wunderground v.1.15,2013-06-28 08:45:00,
2013-06-28 01:51:00,58.0,55.4,29.91,East,96,0.0,0.0,91,0.00,,,0.00,Wunderground v.1.15,2013-06-28 08:51:00,
2013-06-28 01:56:00,57.8,55.2,29.91,East,96,0.0,0.0,91,0.00,,,0.00,Wunderground v.1.15,2013-06-28 08:56:00,
2013-06-28 02:01:00,57.6,55.3,29.91,East,96,0.0,0.0,92,0.00,,,0.00,Wunderground v.1.15,2013-06-28 09:01:00,
2013-06-28 02:06:00,57.5,55.2,29.91,ESE,106,0.0,0.0,92,0.00,,,0.00,Wunderground v.1.15,2013-06-28 09:06:00,
2013-06-28 02:11:00,57.5,55.2,29.91,SSW,195,0.0,0.0,92,0.00,,,0.00,Wunderground v.1.15,2013-06-28 09:11:00,
2013-06-28 02:16:00,57.3,55.0,29.91,SSW,195,0.0,0.0,92,0.00,,,0.00,Wunderground v.1.15,2013-06-28 09:16:00,
2013-06-28 02:21:00,57.2,54.9,29.91,SSW,195,0.0,0.0,92,0.00,,,0.00,Wunderground v.1.15,2013-06-28 09:21:00,
2013-06-28 02:26:00,57.2,54.9,29.91,SSW,195,0.0,0.0,92,0.00,,,0.00,Wunderground v.1.15,2013-06-28 09:26:00,
2013-06-28 02:31:00,57.0,54.7,29.91,SSW,195,0.0,0.0,92,0.00,,,0.00,Wunderground v.1.15,2013-06-28 09:31:00,
2013-06-28 02:36:00,57.0,55.0,29.91,SSW,195,0.0,0.0,93,0.00,,,0.00,Wunderground v.1.15,2013-06-28 09:36:00,
2013-06-28 02:41:00,56.9,54.9,29.91,SSW,195,0.0,0.0,93,0.00,,,0.00,Wunderground v.1.15,2013-06-28 09:41:00,
2013-06-28 02:46:00,56.9,54.9,29.90,SSW,195,0.0,0.0,93,0.00,,,0.00,Wunderground v.1.15,2013-06-28 09:46:00,
2013-06-28 02:51:00,56.7,54.7,29.90,SSW,195,0.0,0.0,93,0.00,,,0.00,Wunderground v.1.15,2013-06-28 09:51:00,
2013-06-28 02:56:00,56.6,54.9,29.90,SSW,195,0.0,0.0,94,0.00,,,0.00,Wunderground v.1.15,2013-06-28 09:56:00,
2013-06-28 03:01:00,56.6,54.9,29.90,SSW,195,0.0,0.0,94,0.00,,,0.00,Wunderground v.1.15,2013-06-28 10:01:00,
2013-06-28 03:06:00,56.6,54.9,29.90,SSW,195,0.0,0.0,94,0.00,,,0.00,Wunderground v.1.15,2013-06-28 10:06:00,
2013-06-28 03:11:00,56.6,54.9,29.90,SSW,195,0.0,0.0,94,0.00,,,0.00,Wunderground v.1.15,2013-06-28 10:11:00,
2013-06-28 03:16:00,56.5,54.8,29.90,SSW,195,0.0,0.0,94,0.00,,,0.00,Wunderground v.1.15,2013-06-28 10:16:00,
2013-06-28 03:21:00,56.5,54.8,29.90,SSW,195,0.0,0.0,94,0.00,,,0.00,Wunderground v.1.15,2013-06-28 10:21:00,
2013-06-28 03:26:00,56.3,54.6,29.90,SSW,195,0.0,0.0,94,0.00,,,0.00,Wunderground v.1.15,2013-06-28 10:26:00,
2013-06-28 03:31:00,56.3,54.6,29.89,SSW,195,0.0,0.0,94,0.00,,,0.00,Wunderground v.1.15,2013-06-28 10:31:00,
2013-06-28 03:36:00,56.2,54.5,29.89,SSW,195,0.0,0.0,94,0.00,,,0.00,Wunderground v.1.15,2013-06-28 10:36:00,
2013-06-28 03:41:00,56.2,54.8,29.89,SSW,195,0.0,0.0,95,0.00,,,0.00,Wunderground v.1.15,2013-06-28 10:41:00,
2013-06-28 03:46:00,56.2,54.8,29.89,SSW,195,0.0,0.0,95,0.00,,,0.00,Wunderground v.1.15,2013-06-28 10:46:00,
2013-06-28 03:51:00,56.2,54.8,29.89,SSW,195,0.0,0.0,95,0.00,,,0.00,Wunderground v.1.15,2013-06-28 10:51:00,
2013-06-28 03:56:00,56.2,54.8,29.89,SSW,195,0.0,0.0,95,0.00,,,0.00,Wunderground v.1.15,2013-06-28 10:56:00,
2013-06-28 04:01:00,56.2,54.8,29.88,SSW,195,0.0,0.0,95,0.00,,,0.00,Wunderground v.1.15,2013-06-28 11:01:00,
2013-06-28 04:06:00,56.2,54.8,29.88,SSW,195,0.0,0.0,95,0.00,,,0.00,Wunderground v.1.15,2013-06-28 11:06:00,
2013-06-28 04:11:00,56.2,54.8,29.88,SSW,195,0.0,0.0,95,0.00,,,0.00,Wunderground v.1.15,2013-06-28 11:11:00,
2013-06-28 04:16:00,56.2,55.1,29.88,SSW,195,0.0,0.0,96,0.00,,,0.00,Wunderground v.1.15,2013-06-28 11:16:00,
2013-06-28 04:21:00,56.2,55.1,29.88,SSW,195,0.0,0.0,96,0.00,,,0.00,Wunderground v.1.15,2013-06-28 11:21:00,
2013-06-28 04:26:00,56.0,54.9,29.88,SSW,195,0.0,0.0,96,0.00,,,0.00,Wunderground v.1.15,2013-06-28 11:26:00,
2013-06-28 04:31:00,56.0,54.9,29.88,SSW,195,0.0,0.0,96,0.00,,,0.00,Wunderground v.1.15,2013-06-28 11:31:00,
2013-06-28 04:36:00,56.0,54.9,29.88,SSW,195,0.0,0.0,96,0.00,,,0.00,Wunderground v.1.15,2013-06-28 11:36:00,
2013-06-28 04:41:00,56.0,54.9,29.88,SSW,195,0.0,0.0,96,0.00,,,0.00,Wunderground v.1.15,2013-06-28 11:41:00,
2013-06-28 04:46:00,56.0,54.9,29.88,SSW,195,0.0,0.0,96,0.00,,,0.00,Wunderground v.1.15,2013-06-28 11:46:00,
2013-06-28 04:51:00,56.0,54.9,29.88,SSW,195,0.0,0.0,96,0.00,,,0.00,Wunderground v.1.15,2013-06-28 11:51:00,
2013-06-28 04:56:00,56.0,54.9,29.88,SSW,195,0.0,0.0,96,0.00,,,0.00,Wunderground v.1.15,2013-06-28 11:56:00,
2013-06-28 05:01:00,56.0,54.9,29.88,SSW,195,0.0,0.0,96,0.00,,,0.00,Wunderground v.1.15,2013-06-28 12:01:00,
2013-06-28 05:06:00,56.2,55.1,29.88,SSW,195,0.0,0.0,96,0.00,,,0.00,Wunderground v.1.15,2013-06-28 12:06:00,
2013-06-28 05:11:00,56.2,55.1,29.88,SSW,195,0.0,0.0,96,0.00,,,0.00,Wunderground v.1.15,2013-06-28 12:11:00,
2013-06-28 05:16:00,56.2,55.1,29.89,SSW,195,0.0,0.0,96,0.00,,,0.00,Wunderground v.1.15,2013-06-28 12:16:00,
2013-06-28 05:21:00,56.2,55.1,29.89,SSW,195,0.0,0.0,96,0.00,,,0.00,Wunderground v.1.15,2013-06-28 12:21:00,
2013-06-28 05:26:00,56.3,55.2,29.89,SSW,195,0.0,0.0,96,0.00,,,0.00,Wunderground v.1.15,2013-06-28 12:26:00,
2013-06-28 05:31:00,56.3,55.2,29.89,SSW,195,0.0,0.0,96,0.00,,,0.00,Wunderground v.1.15,2013-06-28 12:31:00,
2013-06-28 05:36:00,56.3,55.2,29.89,SSW,195,0.0,0.0,96,0.00,,,0.00,Wunderground v.1.15,2013-06-28 12:36:00,
2013-06-28 05:41:00,56.3,55.2,29.89,SSW,195,0.0,0.0,96,0.00,,,0.00,Wunderground v.1.15,2013-06-28 12:41:00,
2013-06-28 05:46:00,56.3,55.2,29.88,SSW,195,0.0,0.0,96,0.00,,,0.00,Wunderground v.1.15,2013-06-28 12:46:00,
2013-06-28 05:52:00,56.3,55.2,29.88,SSW,195,0.0,0.0,96,0.00,,,0.00,Wunderground v.1.15,2013-06-28 12:52:00,
2013-06-28 05:57:00,56.2,55.1,29.88,SSW,195,0.0,0.0,96,0.00,,,0.00,Wunderground v.1.15,2013-06-28 12:57:00,
2013-06-28 06:02:00,56.3,55.2,29.89,SSW,195,0.0,0.0,96,0.00,,,0.00,Wunderground v.1.15,2013-06-28 13:02:00,
2013-06-28 06:07:00,56.3,55.2,29.89,SSW,195,0.0,0.0,96,0.00,,,0.00,Wunderground v.1.15,2013-06-28 13:07:00,
2013-06-28 06:12:00,56.3,55.2,29.89,SSW,195,0.0,0.0,96,0.00,,,0.00,Wunderground v.1.15,2013-06-28 13:12:00,
2013-06-28 06:17:00,56.5,55.4,29.89,SSW,195,0.0,0.0,96,0.00,,,0.00,Wunderground v.1.15,2013-06-28 13:17:00,
2013-06-28 06:22:00,56.6,55.5,29.89,SSW,195,0.0,0.0,96,0.00,,,0.00,Wunderground v.1.15,2013-06-28 13:22:00,
2013-06-28 06:27:00,56.9,55.8,29.89,SSW,195,0.0,0.0,96,0.00,,,0.00,Wunderground v.1.15,2013-06-28 13:27:00,
2013-06-28 06:32:00,57.0,55.9,29.90,SSW,195,0.0,0.0,96,0.00,,,0.00,Wunderground v.1.15,2013-06-28 13:32:00,
2013-06-28 06:37:00,57.3,56.2,29.90,SSW,195,0.0,0.0,96,0.00,,,0.00,Wunderground v.1.15,2013-06-28 13:37:00,
2013-06-28 06:42:00,57.8,56.7,29.90,SSW,195,0.0,0.0,96,0.00,,,0.00,Wunderground v.1.15,2013-06-28 13:42:00,
2013-06-28 06:47:00,58.6,57.2,29.90,SSW,195,0.0,0.0,95,0.00,,,0.00,Wunderground v.1.15,2013-06-28 13:47:00,
2013-06-28 06:52:00,59.3,57.3,29.90,SSW,195,0.0,0.0,93,0.00,,,0.00,Wunderground v.1.15,2013-06-28 13:52:00,
2013-06-28 06:57:00,60.2,57.6,29.90,SSW,195,0.0,0.0,91,0.00,,,0.00,Wunderground v.1.15,2013-06-28 13:57:00,
2013-06-28 07:02:00,60.9,57.9,29.90,SSW,195,0.0,0.0,90,0.00,,,0.00,Wunderground v.1.15,2013-06-28 14:02:00,
2013-06-28 07:07:00,61.6,58.0,29.90,SSW,195,0.0,0.0,88,0.00,,,0.00,Wunderground v.1.15,2013-06-28 14:07:00,
2013-06-28 07:12:00,62.4,57.8,29.90,SSW,195,0.0,0.0,85,0.00,,,0.00,Wunderground v.1.15,2013-06-28 14:12:00,
2013-06-28 07:17:00,63.5,58.2,29.90,SSW,195,0.0,0.0,83,0.00,,,0.00,Wunderground v.1.15,2013-06-28 14:17:00,
2013-06-28 07:22:00,64.3,58.0,29.90,SSW,201,0.0,0.0,80,0.00,,,0.00,Wunderground v.1.15,2013-06-28 14:22:00,
2013-06-28 07:27:00,64.8,58.1,29.90,SSW,201,0.0,0.0,79,0.00,,,0.00,Wunderground v.1.15,2013-06-28 14:27:00,
2013-06-28 07:32:00,65.3,58.3,29.90,SSW,201,0.0,0.0,78,0.00,,,0.00,Wunderground v.1.15,2013-06-28 14:32:00,
2013-06-28 07:37:00,66.1,58.7,29.90,SSW,201,0.0,0.0,77,0.00,,,0.00,Wunderground v.1.15,2013-06-28 14:37:00,
2013-06-28 07:42:00,66.8,58.6,29.90,South,174,0.0,0.0,75,0.00,,,0.00,Wunderground v.1.15,2013-06-28 14:42:00,
2013-06-28 07:47:00,67.6,59.0,29.90,South,170,0.0,0.0,74,0.00,,,0.00,Wunderground v.1.15,2013-06-28 14:47:00,
2013-06-28 07:52:00,68.3,58.9,29.90,South,170,0.0,0.0,72,0.00,,,0.00,Wunderground v.1.15,2013-06-28 14:52:00,
2013-06-28 07:57:00,68.6,59.2,29.90,South,170,0.0,0.0,72,0.00,,,0.00,Wunderground v.1.15,2013-06-28 14:57:00,
2013-06-28 08:02:00,69.3,59.5,29.90,South,170,0.0,0.0,71,0.00,,,0.00,Wunderground v.1.15,2013-06-28 15:02:00,
2013-06-28 08:07:00,69.9,59.3,29.90,South,170,0.0,0.0,69,0.00,,,0.00,Wunderground v.1.15,2013-06-28 15:07:00,
2013-06-28 08:12:00,70.9,60.2,29.90,South,170,0.0,0.0,69,0.00,,,0.00,Wunderground v.1.15,2013-06-28 15:12:00,
2013-06-28 08:17:00,71.6,60.5,29.90,South,170,0.0,0.0,68,0.00,,,0.00,Wunderground v.1.15,2013-06-28 15:17:00,
2013-06-28 08:22:00,72.3,60.7,29.90,South,170,0.0,0.0,67,0.00,,,0.00,Wunderground v.1.15,2013-06-28 15:22:00,
2013-06-28 08:28:00,73.2,60.7,29.90,South,170,0.0,0.0,65,0.00,,,0.00,Wunderground v.1.15,2013-06-28 15:28:00,
2013-06-28 08:33:00,74.0,60.6,29.90,SSE,153,0.0,0.0,63,0.00,,,0.00,Wunderground v.1.15,2013-06-28 15:33:00,
2013-06-28 08:38:00,74.7,60.8,29.90,SSE,153,0.0,0.0,62,0.00,,,0.00,Wunderground v.1.15,2013-06-28 15:38:00,
2013-06-28 08:43:00,75.4,60.5,29.90,SSE,153,0.0,0.0,60,0.00,,,0.00,Wunderground v.1.15,2013-06-28 15:43:00,
2013-06-28 08:48:00,76.1,60.7,29.90,SSE,153,0.0,0.0,59,0.00,,,0.00,Wunderground v.1.15,2013-06-28 15:48:00,
2013-06-28 08:53:00,76.8,60.9,29.90,SSE,153,0.0,0.0,58,0.00,,,0.00,Wunderground v.1.15,2013-06-28 15:53:00,
2013-06-28 08:58:00,77.4,61.5,29.90,SSE,153,0.0,0.0,58,0.00,,,0.00,Wunderground v.1.15,2013-06-28 15:58:00,
2013-06-28 09:03:00,78.5,62.0,29.90,SSE,153,0.0,0.0,57,0.00,,,0.00,Wunderground v.1.15,2013-06-28 16:03:00,
2013-06-28 09:08:00,79.6,61.5,29.90,SSE,153,0.0,0.0,54,0.00,,,0.00,Wunderground v.1.15,2013-06-28 16:08:00,
2013-06-28 09:13:00,80.3,62.1,29.90,SSE,153,0.0,0.0,54,0.00,,,0.00,Wunderground v.1.15,2013-06-28 16:13:00,
2013-06-28 09:18:00,81.2,61.9,29.90,SE,146,0.0,0.0,52,0.00,,,0.00,Wunderground v.1.15,2013-06-28 16:18:00,
2013-06-28 09:23:00,82.0,61.5,29.90,SSW,195,0.0,0.0,50,0.00,,,0.00,Wunderground v.1.15,2013-06-28 16:23:00,
2013-06-28 09:28:00,82.0,61.0,29.90,SSW,195,0.0,0.0,49,0.00,,,0.00,Wunderground v.1.15,2013-06-28 16:28:00,
2013-06-28 09:33:00,82.0,61.5,29.90,SE,129,0.0,0.0,50,0.00,,,0.00,Wunderground v.1.15,2013-06-28 16:33:00,
2013-06-28 09:38:00,81.8,60.8,29.90,SW,221,0.0,0.0,49,0.00,,,0.00,Wunderground v.1.15,2013-06-28 16:38:00,
2013-06-28 09:43:00,81.8,60.8,29.90,WSW,257,0.0,0.0,49,0.00,,,0.00,Wunderground v.1.15,2013-06-28 16:43:00,
2013-06-28 09:48:00,80.5,60.1,29.90,West,278,0.0,0.0,50,0.00,,,0.00,Wunderground v.1.15,2013-06-28 16:48:00,
2013-06-28 09:53:00,79.8,60.1,29.90,West,259,0.0,0.0,51,0.00,,,0.00,Wunderground v.1.15,2013-06-28 16:53:00,
2013-06-28 09:54:00,79.4,59.7,29.90,West,266,0.0,0.0,51,0.00,,,0.00,Wunderground v.1.15,2013-06-28 16:54:00,
2013-06-28 09:59:00,77.4,60.0,29.90,West,266,0.0,0.0,55,0.00,,,0.00,Wunderground v.1.15,2013-06-28 16:59:00,
2013-06-28 10:04:00,76.0,59.2,29.90,West,264,0.0,0.0,56,0.00,,,0.00,Wunderground v.1.15,2013-06-28 17:04:00,
2013-06-28 10:09:00,74.6,58.8,29.90,West,276,0.0,0.0,58,0.00,,,0.00,Wunderground v.1.15,2013-06-28 17:09:00,
2013-06-28 10:14:00,73.9,59.6,29.90,NNW,348,0.0,0.0,61,0.00,,,0.00,Wunderground v.1.15,2013-06-28 17:14:00,
2013-06-28 10:19:00,74.4,59.6,29.90,WNW,301,0.0,0.0,60,0.00,,,0.00,Wunderground v.1.15,2013-06-28 17:19:00,
2013-06-28 10:24:00,75.1,59.3,29.90,West,271,0.0,0.0,58,0.00,,,0.00,Wunderground v.1.15,2013-06-28 17:24:00,
2013-06-28 10:29:00,76.0,59.7,29.90,West,279,0.0,0.0,57,0.00,,,0.00,Wunderground v.1.15,2013-06-28 17:29:00,
2013-06-28 10:34:00,76.8,59.9,29.90,NW,326,0.0,0.0,56,0.00,,,0.00,Wunderground v.1.15,2013-06-28 17:34:00,
2013-06-28 10:39:00,78.3,60.3,29.90,ESE,111,0.0,0.0,54,0.00,,,0.00,Wunderground v.1.15,2013-06-28 17:39:00,
2013-06-28 10:44:00,80.1,60.3,29.89,East,86,0.0,0.0,51,0.00,,,0.00,Wunderground v.1.15,2013-06-28 17:44:00,
2013-06-28 10:49:00,81.6,60.6,29.89,WNW,288,0.0,0.0,49,0.00,,,0.00,Wunderground v.1.15,2013-06-28 17:49:00,
2013-06-28 10:54:00,81.1,60.1,29.89,WNW,287,0.0,0.0,49,0.00,,,0.00,Wunderground v.1.15,2013-06-28 17:54:00,
2013-06-28 10:59:00,80.9,59.9,29.89,West,261,0.0,0.0,49,0.00,,,0.00,Wunderground v.1.15,2013-06-28 17:59:00,
2013-06-28 11:04:00,81.4,61.0,29.89,WNW,294,0.0,0.0,50,0.00,,,0.00,Wunderground v.1.15,2013-06-28 18:04:00,
2013-06-28 11:09:00,83.2,60.9,29.89,North,357,0.0,0.0,47,0.00,,,0.00,Wunderground v.1.15,2013-06-28 18:09:00,
2013-06-28 11:14:00,83.8,61.4,29.89,NNW,327,0.0,0.0,47,0.00,,,0.00,Wunderground v.1.15,2013-06-28 18:14:00,
2013-06-28 11:19:00,83.4,60.4,29.89,NNW,333,0.0,0.0,46,0.00,,,0.00,Wunderground v.1.15,2013-06-28 18:19:00,
2013-06-28 11:24:00,84.0,61.6,29.89,NW,304,0.0,0.0,47,0.00,,,0.00,Wunderground v.1.15,2013-06-28 18:24:00,
2013-06-28 11:29:00,84.5,60.8,29.89,NW,321,0.0,0.0,45,0.00,,,0.00,Wunderground v.1.15,2013-06-28 18:29:00,
2013-06-28 11:34:00,85.3,60.3,29.89,North,353,0.0,0.0,43,0.00,,,0.00,Wunderground v.1.15,2013-06-28 18:34:00,
2013-06-28 11:39:00,85.3,60.3,29.89,WNW,286,0.0,1.0,43,0.00,,,0.00,Wunderground v.1.15,2013-06-28 18:39:00,
2013-06-28 11:44:00,84.9,60.6,29.89,North,353,0.0,0.0,44,0.00,,,0.00,Wunderground v.1.15,2013-06-28 18:44:00,
2013-06-28 11:49:00,84.5,60.2,29.89,WSW,247,0.0,0.0,44,0.00,,,0.00,Wunderground v.1.15,2013-06-28 18:49:00,
2013-06-28 11:54:00,84.9,60.6,29.89,WSW,245,0.0,0.0,44,0.00,,,0.00,Wunderground v.1.15,2013-06-28 18:54:00,
2013-06-28 11:59:00,84.1,59.8,29.89,SW,233,0.0,0.0,44,0.00,,,0.00,Wunderground v.1.15,2013-06-28 18:59:00,
2013-06-28 12:04:00,82.6,59.7,29.89,SW,236,0.0,0.0,46,0.00,,,0.00,Wunderground v.1.15,2013-06-28 19:04:00,
2013-06-28 12:09:00,80.5,60.1,29.89,West,261,0.0,0.0,50,0.00,,,0.00,Wunderground v.1.15,2013-06-28 19:09:00,
2013-06-28 12:14:00,79.4,59.7,29.89,SW,226,0.0,0.0,51,0.00,,,0.00,Wunderground v.1.15,2013-06-28 19:14:00,
2013-06-28 12:20:00,78.3,59.2,29.89,South,177,0.0,0.0,52,0.00,,,0.00,Wunderground v.1.15,2013-06-28 19:20:00,
2013-06-28 12:25:00,77.9,59.4,29.89,WNW,290,0.0,0.0,53,0.00,,,0.00,Wunderground v.1.15,2013-06-28 19:25:00,
2013-06-28 12:30:00,77.6,59.1,29.88,WSW,251,0.0,0.0,53,0.00,,,0.00,Wunderground v.1.15,2013-06-28 19:30:00,
2013-06-28 12:35:00,76.8,59.4,29.88,West,272,0.0,0.0,55,0.00,,,0.00,Wunderground v.1.15,2013-06-28 19:35:00,
2013-06-28 12:40:00,76.8,59.4,29.88,SSW,212,0.0,0.0,55,0.00,,,0.00,Wunderground v.1.15,2013-06-28 19:40:00,
2013-06-28 12:45:00,77.0,59.1,29.88,SSW,213,0.0,0.0,54,0.00,,,0.00,Wunderground v.1.15,2013-06-28 19:45:00,
2013-06-28 12:50:00,77.0,59.6,29.88,WNW,297,0.0,0.0,55,0.00,,,0.00,Wunderground v.1.15,2013-06-28 19:50:00,
2013-06-28 12:55:00,77.2,59.3,29.88,West,272,0.0,0.0,54,0.00,,,0.00,Wunderground v.1.15,2013-06-28 19:55:00,
2013-06-28 13:00:00,77.0,58.0,29.88,West,280,3.0,4.0,52,0.00,,,0.00,Wunderground v.1.15,2013-06-28 20:00:00,
2013-06-28 13:06:00,76.7,58.8,29.88,West,264,3.0,5.0,54,0.00,,,0.00,Wunderground v.1.15,2013-06-28 20:06:00,
2013-06-28 13:11:00,76.5,58.6,29.88,WNW,288,0.0,3.0,54,0.00,,,0.00,Wunderground v.1.15,2013-06-28 20:11:00,
2013-06-28 13:16:00,75.8,58.5,29.87,NW,310,3.0,6.0,55,0.00,,,0.00,Wunderground v.1.15,2013-06-28 20:16:00,
2013-06-28 13:21:00,75.1,58.8,29.87,NW,324,0.0,2.0,57,0.00,,,0.00,Wunderground v.1.15,2013-06-28 20:21:00,
2013-06-28 13:26:00,75.3,58.5,29.87,North,357,3.0,4.0,56,0.00,,,0.00,Wunderground v.1.15,2013-06-28 20:26:00,
2013-06-28 13:31:00,76.0,59.2,29.87,NW,321,0.0,1.0,56,0.00,,,0.00,Wunderground v.1.15,2013-06-28 20:31:00,
2013-06-28 13:35:00,76.8,58.9,29.87,West,279,7.0,7.0,54,0.00,,,0.00,Wunderground v.1.15,2013-06-28 20:35:00,
2013-06-28 13:41:00,75.4,58.6,29.87,WNW,285,3.0,5.0,56,0.00,,,0.00,Wunderground v.1.15,2013-06-28 20:41:00,
2013-06-28 13:45:00,75.1,58.8,29.87,SE,146,2.0,6.0,57,0.00,,,0.00,Wunderground v.1.15,2013-06-28 20:45:00,
2013-06-28 13:51:00,74.7,58.0,29.87,West,265,3.0,5.0,56,0.00,,,0.00,Wunderground v.1.15,2013-06-28 20:51:00,
2013-06-28 13:56:00,73.3,57.6,29.87,West,278,5.0,9.0,58,0.00,,,0.00,Wunderground v.1.15,2013-06-28 20:56:00,
2013-06-28 14:01:00,73.5,58.8,29.86,West,274,1.0,4.0,60,0.00,,,0.00,Wunderground v.1.15,2013-06-28 21:01:00,
2013-06-28 14:06:00,74.7,58.9,29.86,WNW,301,1.0,5.0,58,0.00,,,0.00,Wunderground v.1.15,2013-06-28 21:06:00,
2013-06-28 14:11:00,75.1,58.8,29.86,WNW,287,1.0,5.0,57,0.00,,,0.00,Wunderground v.1.15,2013-06-28 21:11:00,
2013-06-28 14:16:00,75.6,58.8,29.86,WSW,257,2.0,5.0,56,0.00,,,0.00,Wunderground v.1.15,2013-06-28 21:16:00,
2013-06-28 14:21:00,75.8,59.0,29.86,West,274,1.0,4.0,56,0.00,,,0.00,Wunderground v.1.15,2013-06-28 21:21:00,
2013-06-28 14:26:00,75.8,59.0,29.86,West,269,0.0,5.0,56,0.00,,,0.00,Wunderground v.1.15,2013-06-28 21:26:00,
2013-06-28 14:31:00,76.1,58.8,29.86,WNW,298,5.0,6.0,55,0.00,,,0.00,Wunderground v.1.15,2013-06-28 21:31:00,
2013-06-28 14:36:00,75.8,59.0,29.86,SE,142,0.0,6.0,56,0.00,,,0.00,Wunderground v.1.15,2013-06-28 21:36:00,
2013-06-28 14:41:00,76.0,59.2,29.86,SE,144,1.0,2.0,56,0.00,,,0.00,Wunderground v.1.15,2013-06-28 21:41:00,
2013-06-28 14:46:00,75.8,59.0,29.86,SSW,195,0.0,2.0,56,0.00,,,0.00,Wunderground v.1.15,2013-06-28 21:46:00,
2013-06-28 14:51:00,75.4,59.1,29.86,WNW,287,4.0,4.0,57,0.00,,,0.00,Wunderground v.1.15,2013-06-28 21:51:00,
2013-06-28 14:56:00,73.3,57.6,29.86,West,280,3.0,10.0,58,0.00,,,0.00,Wunderground v.1.15,2013-06-28 21:56:00,
2013-06-28 15:01:00,71.6,57.9,29.86,WNW,286,0.0,3.0,62,0.00,,,0.00,Wunderground v.1.15,2013-06-28 22:01:00,
2013-06-28 15:06:00,72.1,57.9,29.86,West,269,0.0,3.0,61,0.00,,,0.00,Wunderground v.1.15,2013-06-28 22:06:00,
2013-06-28 15:11:00,72.8,58.1,29.86,SSE,148,2.0,2.0,60,0.00,,,0.00,Wunderground v.1.15,2013-06-28 22:11:00,
2013-06-28 15:16:00,73.2,58.0,29.85,NNW,345,0.0,5.0,59,0.00,,,0.00,Wunderground v.1.15,2013-06-28 22:16:00,
2013-06-28 15:21:00,73.7,58.0,29.85,West,277,0.0,1.0,58,0.00,,,0.00,Wunderground v.1.15,2013-06-28 22:21:00,
2013-06-28 15:26:00,74.2,58.5,29.85,South,181,0.0,4.0,58,0.00,,,0.00,Wunderground v.1.15,2013-06-28 22:26:00,
2013-06-28 15:31:00,73.3,57.6,29.85,NNE,25,0.0,3.0,58,0.00,,,0.00,Wunderground v.1.15,2013-06-28 22:31:00,
2013-06-28 15:36:00,72.7,57.5,29.85,East,85,0.0,3.0,59,0.00,,,0.00,Wunderground v.1.15,2013-06-28 22:36:00,
2013-06-28 15:41:00,73.0,58.3,29.85,SE,129,2.0,2.0,60,0.00,,,0.00,Wunderground v.1.15,2013-06-28 22:41:00,
2013-06-28 15:46:00,73.9,58.2,29.84,NW,320,0.0,4.0,58,0.00,,,0.00,Wunderground v.1.15,2013-06-28 22:46:00,
2013-06-28 15:51:00,74.4,58.2,29.84,SE,130,3.0,3.0,57,0.00,,,0.00,Wunderground v.1.15,2013-06-28 22:51:00,
2013-06-28 15:56:00,74.6,58.8,29.84,WSW,252,0.0,3.0,58,0.00,,,0.00,Wunderground v.1.15,2013-06-28 22:56:00,
2013-06-28 16:01:00,74.9,59.1,29.84,SW,235,0.0,0.0,58,0.00,,,0.00,Wunderground v.1.15,2013-06-28 23:01:00,
2013-06-28 16:06:00,76.0,59.2,29.84,West,274,1.0,3.0,56,0.00,,,0.00,Wunderground v.1.15,2013-06-28 23:06:00,
2013-06-28 16:11:00,76.1,59.3,29.84,West,281,0.0,1.0,56,0.00,,,0.00,Wunderground v.1.15,2013-06-28 23:11:00,
2013-06-28 16:16:00,76.1,58.8,29.83,WNW,300,0.0,3.0,55,0.00,,,0.00,Wunderground v.1.15,2013-06-28 23:16:00,
2013-06-28 16:21:00,76.0,58.7,29.83,NW,311,0.0,1.0,55,0.00,,,0.00,Wunderground v.1.15,2013-06-28 23:21:00,
2013-06-28 16:26:00,76.0,58.7,29.83,WSW,251,3.0,6.0,55,0.00,,,0.00,Wunderground v.1.15,2013-06-28 23:26:00,
2013-06-28 16:31:00,74.4,58.2,29.82,WNW,289,2.0,4.0,57,0.00,,,0.00,Wunderground v.1.15,2013-06-28 23:31:00,
2013-06-28 16:36:00,73.9,58.7,29.82,West,276,2.0,5.0,59,0.00,,,0.00,Wunderground v.1.15,2013-06-28 23:36:00,
2013-06-28 16:41:00,74.9,58.6,29.82,West,276,0.0,1.0,57,0.00,,,0.00,Wunderground v.1.15,2013-06-28 23:41:00,
2013-06-28 16:46:00,75.8,59.0,29.82,NNW,340,2.0,2.0,56,0.00,,,0.00,Wunderground v.1.15,2013-06-28 23:46:00,
2013-06-28 16:51:00,76.1,58.8,29.82,NNW,336,0.0,0.0,55,0.00,,,0.00,Wunderground v.1.15,2013-06-28 23:51:00,
2013-06-28 16:56:00,75.6,58.3,29.82,WNW,291,0.0,4.0,55,0.00,,,0.00,Wunderground v.1.15,2013-06-28 23:56:00,
2013-06-28 17:01:00,75.1,58.3,29.81,NNW,333,2.0,2.0,56,0.00,,,0.00,Wunderground v.1.15,2013-06-29 00:01:00,
2013-06-28 17:06:00,73.9,57.7,29.81,WNW,290,1.0,4.0,57,0.00,,,0.00,Wunderground v.1.15,2013-06-29 00:06:00,
2013-06-28 17:11:00,73.3,58.1,29.81,WNW,290,0.0,1.0,59,0.00,,,0.00,Wunderground v.1.15,2013-06-29 00:11:00,
2013-06-28 17:16:00,73.9,58.2,29.81,WNW,285,0.0,4.0,58,0.00,,,0.00,Wunderground v.1.15,2013-06-29 00:16:00,
2013-06-28 17:21:00,73.9,58.2,29.81,WNW,285,0.0,2.0,58,0.00,,,0.00,Wunderground v.1.15,2013-06-29 00:21:00,
2013-06-28 17:26:00,74.7,58.5,29.81,West,259,2.0,3.0,57,0.00,,,0.00,Wunderground v.1.15,2013-06-29 00:26:00,
2013-06-28 17:31:00,74.0,57.8,29.81,West,271,2.0,4.0,57,0.00,,,0.00,Wunderground v.1.15,2013-06-29 00:31:00,
2013-06-28 17:36:00,72.7,58.0,29.81,WSW,254,3.0,4.0,60,0.00,,,0.00,Wunderground v.1.15,2013-06-29 00:36:00,
2013-06-28 17:41:00,70.6,57.4,29.81,WNW,285,0.0,4.0,63,0.00,,,0.00,Wunderground v.1.15,2013-06-29 00:41:00,
2013-06-28 17:46:00,68.4,56.6,29.81,WNW,290,3.0,6.0,66,0.00,,,0.00,Wunderground v.1.15,2013-06-29 00:46:00,
2013-06-28 17:51:00,67.3,56.8,29.81,West,270,3.0,6.0,69,0.00,,,0.00,Wunderground v.1.15,2013-06-29 00:51:00,
2013-06-28 17:56:00,66.3,56.6,29.81,WSW,251,1.0,6.0,71,0.00,,,0.00,Wunderground v.1.15,2013-06-29 00:56:00,
2013-06-28 18:01:00,65.6,55.9,29.81,WNW,292,4.0,6.0,71,0.00,,,0.00,Wunderground v.1.15,2013-06-29 01:01:00,
2013-06-28 18:06:00,64.7,56.2,29.81,West,278,0.0,6.0,74,0.00,,,0.00,Wunderground v.1.15,2013-06-29 01:06:00,
2013-06-28 18:11:00,64.5,56.0,29.81,West,272,2.0,6.0,74,0.00,,,0.00,Wunderground v.1.15,2013-06-29 01:11:00,
2013-06-28 18:16:00,63.7,55.6,29.81,WNW,291,3.0,7.0,75,0.00,,,0.00,Wunderground v.1.15,2013-06-29 01:16:00,
2013-06-28 18:21:00,63.4,55.7,29.81,WNW,286,0.0,3.0,76,0.00,,,0.00,Wunderground v.1.15,2013-06-29 01:21:00,
2013-06-28 18:27:00,62.6,55.3,29.81,WNW,285,4.0,6.0,77,0.00,,,0.00,Wunderground v.1.15,2013-06-29 01:27:00,
2013-06-28 18:32:00,62.6,55.6,29.81,WNW,290,2.0,4.0,78,0.00,,,0.00,Wunderground v.1.15,2013-06-29 01:32:00,
2013-06-28 18:37:00,61.8,55.2,29.81,WNW,284,5.0,6.0,79,0.00,,,0.00,Wunderground v.1.15,2013-06-29 01:37:00,
2013-06-28 18:41:00,61.2,55.0,29.81,West,280,0.0,3.0,80,0.00,,,0.00,Wunderground v.1.15,2013-06-29 01:41:00,
2013-06-28 18:47:00,61.2,55.3,29.80,West,264,0.0,4.0,81,0.00,,,0.00,Wunderground v.1.15,2013-06-29 01:47:00,
2013-06-28 18:52:00,61.0,55.1,29.80,WNW,297,2.0,5.0,81,0.00,,,0.00,Wunderground v.1.15,2013-06-29 01:52:00,
2013-06-28 18:57:00,60.2,55.0,29.80,WNW,282,0.0,5.0,83,0.00,,,0.00,Wunderground v.1.15,2013-06-29 01:57:00,
2013-06-28 19:02:00,60.1,55.2,29.81,NNW,343,0.0,1.0,84,0.00,,,0.00,Wunderground v.1.15,2013-06-29 02:02:00,
2013-06-28 19:07:00,59.9,55.1,29.81,NNW,343,0.0,1.0,84,0.00,,,0.00,Wunderground v.1.15,2013-06-29 02:07:00,
2013-06-28 19:12:00,59.2,54.7,29.81,NE,39,1.0,4.0,85,0.00,,,0.00,Wunderground v.1.15,2013-06-29 02:12:00,
2013-06-28 19:17:00,58.4,54.5,29.81,North,356,1.0,4.0,87,0.00,,,0.00,Wunderground v.1.15,2013-06-29 02:17:00,
2013-06-28 19:22:00,57.5,54.3,29.81,NNW,339,2.0,3.0,89,0.00,,,0.00,Wunderground v.1.15,2013-06-29 02:22:00,
2013-06-28 19:27:00,57.2,54.3,29.81,NNW,340,0.0,3.0,90,0.00,,,0.00,Wunderground v.1.15,2013-06-29 02:27:00,
2013-06-28 19:32:00,57.0,54.4,29.81,NNE,23,0.0,2.0,91,0.00,,,0.00,Wunderground v.1.15,2013-06-29 02:32:00,
2013-06-28 19:37:00,56.9,54.6,29.81,SSE,159,0.0,2.0,92,0.00,,,0.00,Wunderground v.1.15,2013-06-29 02:37:00,
2013-06-28 19:42:00,56.7,54.4,29.81,SSE,157,0.0,1.0,92,0.00,,,0.00,Wunderground v.1.15,2013-06-29 02:42:00,
2013-06-28 19:47:00,56.6,54.3,29.81,SW,214,1.0,3.0,92,0.00,,,0.00,Wunderground v.1.15,2013-06-29 02:47:00,
2013-06-28 19:52:00,56.6,54.6,29.81,SW,214,0.0,1.0,93,0.00,,,0.00,Wunderground v.1.15,2013-06-29 02:52:00,
2013-06-28 19:57:00,56.5,54.5,29.81,SW,214,0.0,1.0,93,0.00,,,0.00,Wunderground v.1.15,2013-06-29 02:57:00,
2013-06-28 20:02:00,56.5,54.5,29.82,SW,234,0.0,0.0,93,0.00,,,0.00,Wunderground v.1.15,2013-06-29 03:02:00,
2013-06-28 20:07:00,56.3,54.3,29.82,SW,234,0.0,1.0,93,0.00,,,0.00,Wunderground v.1.15,2013-06-29 03:07:00,
2013-06-28 20:12:00,56.2,54.2,29.82,SW,234,0.0,0.0,93,0.00,,,0.00,Wunderground v.1.15,2013-06-29 03:12:00,
2013-06-28 20:17:00,56.2,54.5,29.82,SW,234,0.0,0.0,94,0.00,,,0.00,Wunderground v.1.15,2013-06-29 03:17:00,
2013-06-28 20:22:00,56.3,54.6,29.82,SW,234,0.0,0.0,94,0.00,,,0.00,Wunderground v.1.15,2013-06-29 03:22:00,
2013-06-28 20:27:00,56.3,54.6,29.82,SW,234,0.0,0.0,94,0.00,,,0.00,Wunderground v.1.15,2013-06-29 03:27:00,
2013-06-28 20:32:00,56.3,54.6,29.82,SW,234,0.0,0.0,94,0.00,,,0.00,Wunderground v.1.15,2013-06-29 03:32:00,
2013-06-28 20:37:00,56.3,54.3,29.82,SW,234,0.0,0.0,93,0.00,,,0.00,Wunderground v.1.15,2013-06-29 03:37:00,
2013-06-28 20:42:00,56.3,54.3,29.82,SW,234,0.0,0.0,93,0.00,,,0.00,Wunderground v.1.15,2013-06-29 03:42:00,
2013-06-28 20:47:00,56.5,54.5,29.82,SW,234,0.0,0.0,93,0.00,,,0.00,Wunderground v.1.15,2013-06-29 03:47:00,
2013-06-28 20:52:00,56.5,54.5,29.82,SW,234,0.0,0.0,93,0.00,,,0.00,Wunderground v.1.15,2013-06-29 03:52:00,
2013-06-28 20:57:00,56.5,54.5,29.82,SW,234,0.0,0.0,93,0.00,,,0.00,Wunderground v.1.15,2013-06-29 03:57:00,
2013-06-28 21:01:00,56.5,54.5,29.82,SW,234,0.0,0.0,93,0.00,,,0.00,Wunderground v.1.15,2013-06-29 04:01:00,
2013-06-28 21:06:00,56.6,54.3,29.82,SW,234,0.0,0.0,92,0.00,,,0.00,Wunderground v.1.15,2013-06-29 04:06:00,
2013-06-28 21:11:00,56.6,54.3,29.82,SW,234,0.0,0.0,92,0.00,,,0.00,Wunderground v.1.15,2013-06-29 04:11:00,
2013-06-28 21:16:00,56.6,54.3,29.82,SW,234,0.0,0.0,92,0.00,,,0.00,Wunderground v.1.15,2013-06-29 04:16:00,
2013-06-28 21:21:00,56.7,54.4,29.82,SW,234,0.0,0.0,92,0.00,,,0.00,Wunderground v.1.15,2013-06-29 04:21:00,
2013-06-28 21:26:00,56.7,54.4,29.82,SW,234,0.0,0.0,92,0.00,,,0.00,Wunderground v.1.15,2013-06-29 04:26:00,
2013-06-28 21:31:00,56.9,54.6,29.82,SW,234,0.0,0.0,92,0.00,,,0.00,Wunderground v.1.15,2013-06-29 04:31:00,
2013-06-28 21:36:00,57.0,54.7,29.82,SW,234,0.0,0.0,92,0.00,,,0.00,Wunderground v.1.15,2013-06-29 04:36:00,
2013-06-28 21:41:00,57.0,54.7,29.82,SW,234,0.0,0.0,92,0.00,,,0.00,Wunderground v.1.15,2013-06-29 04:41:00,
2013-06-28 21:46:00,57.0,54.7,29.82,SW,234,0.0,0.0,92,0.00,,,0.00,Wunderground v.1.15,2013-06-29 04:46:00,
2013-06-28 21:51:00,57.0,54.7,29.82,SW,234,0.0,0.0,92,0.00,,,0.00,Wunderground v.1.15,2013-06-29 04:51:00,
2013-06-28 21:56:00,57.0,54.4,29.82,SW,234,0.0,0.0,91,0.00,,,0.00,Wunderground v.1.15,2013-06-29 04:56:00,
2013-06-28 22:01:00,57.0,54.7,29.83,ESE,108,0.0,0.0,92,0.00,,,0.00,Wunderground v.1.15,2013-06-29 05:01:00,
2013-06-28 22:07:00,57.0,54.7,29.83,ESE,108,0.0,0.0,92,0.00,,,0.00,Wunderground v.1.15,2013-06-29 05:07:00,
2013-06-28 22:12:00,56.9,54.6,29.83,ESE,108,0.0,0.0,92,0.00,,,0.00,Wunderground v.1.15,2013-06-29 05:12:00,
2013-06-28 22:17:00,56.9,54.6,29.83,ESE,108,0.0,0.0,92,0.00,,,0.00,Wunderground v.1.15,2013-06-29 05:17:00,
2013-06-28 22:22:00,56.7,54.4,29.83,ESE,108,0.0,0.0,92,0.00,,,0.00,Wunderground v.1.15,2013-06-29 05:22:00,
2013-06-28 22:27:00,56.7,54.4,29.83,ESE,108,0.0,0.0,92,0.00,,,0.00,Wunderground v.1.15,2013-06-29 05:27:00,
2013-06-28 22:32:00,56.6,54.3,29.83,ESE,108,0.0,0.0,92,0.00,,,0.00,Wunderground v.1.15,2013-06-29 05:32:00,
2013-06-28 22:37:00,56.5,54.2,29.83,ESE,108,0.0,0.0,92,0.00,,,0.00,Wunderground v.1.15,2013-06-29 05:37:00,
2013-06-28 22:42:00,56.5,54.2,29.83,ESE,108,0.0,0.0,92,0.00,,,0.00,Wunderground v.1.15,2013-06-29 05:42:00,
2013-06-28 22:47:00,56.5,54.2,29.83,ESE,108,0.0,0.0,92,0.00,,,0.00,Wunderground v.1.15,2013-06-29 05:47:00,
2013-06-28 22:52:00,56.3,54.3,29.83,ESE,108,0.0,0.0,93,0.00,,,0.00,Wunderground v.1.15,2013-06-29 05:52:00,
2013-06-28 22:57:00,56.2,54.2,29.83,ESE,108,0.0,0.0,93,0.00,,,0.00,Wunderground v.1.15,2013-06-29 05:57:00,
2013-06-28 23:02:00,56.2,54.2,29.83,ESE,108,0.0,0.0,93,0.00,,,0.00,Wunderground v.1.15,2013-06-29 06:02:00,
2013-06-28 23:07:00,56.0,54.0,29.83,ESE,108,0.0,0.0,93,0.00,,,0.00,Wunderground v.1.15,2013-06-29 06:07:00,
2013-06-28 23:12:00,55.9,53.9,29.83,ESE,108,0.0,0.0,93,0.00,,,0.00,Wunderground v.1.15,2013-06-29 06:12:00,
2013-06-28 23:17:00,55.9,54.2,29.83,ESE,108,0.0,0.0,94,0.00,,,0.00,Wunderground v.1.15,2013-06-29 06:17:00,
2013-06-28 23:22:00,55.7,54.0,29.83,ESE,108,0.0,0.0,94,0.00,,,0.00,Wunderground v.1.15,2013-06-29 06:22:00,
2013-06-28 23:27:00,55.7,54.0,29.83,ESE,108,0.0,0.0,94,0.00,,,0.00,Wunderground v.1.15,2013-06-29 06:27:00,
2013-06-28 23:32:00,55.6,53.9,29.83,ESE,108,0.0,0.0,94,0.00,,,0.00,Wunderground v.1.15,2013-06-29 06:32:00,
2013-06-28 23:37:00,55.6,53.9,29.83,ESE,108,0.0,0.0,94,0.00,,,0.00,Wunderground v.1.15,2013-06-29 06:37:00,
2013-06-28 23:42:00,55.6,53.9,29.83,ESE,108,0.0,0.0,94,0.00,,,0.00,Wunderground v.1.15,2013-06-29 06:42:00,
2013-06-28 23:47:00,55.4,53.7,29.83,ESE,108,0.0,0.0,94,0.00,,,0.00,Wunderground v.1.15,2013-06-29 06:47:00,
2013-06-28 23:52:00,55.4,53.7,29.83,ESE,108,0.0,0.0,94,0.00,,,0.00,Wunderground v.1.15,2013-06-29 06:52:00,
2013-06-28 23:57:00,55.3,53.6,29.83,ESE,108,0.0,0.0,94,0.00,,,0.00,Wunderground v.1.15,2013-06-29 06:57:00,